Location: Belfast
(54.5830°N, 5.9330°W)
Time: 07:45:55
(UTC+00:00)

ISS - Visible Passes

Search period start: 01 December 2022 00:00
Search period end: 11 December 2022 00:00
Orbit: 415 x 420 km, 51.6° (Epoch: 01 December)

Date Brightness Start Highest point End Pass type
(mag) Time Alt. Az. Time Alt. Az. Time Alt. Az.
01 Dec -3.0 16:48:27 10° WSW 16:51:44 51° S 16:55:00 10° ESE visible
01 Dec -2.3 18:25:08 10° W 18:28:10 32° SSW 18:29:04 27° SSE visible
02 Dec -2.5 17:36:55 10° W 17:40:04 39° SSW 17:43:02 11° SE visible
02 Dec -1.0 19:14:13 10° WSW 19:15:58 15° SW 19:15:58 15° SW visible
03 Dec -2.7 16:48:36 10° W 16:51:50 45° S 16:55:03 10° ESE visible
03 Dec -1.4 18:25:33 10° W 18:28:06 20° SSW 18:29:58 13° S visible
04 Dec -1.7 17:36:57 10° W 17:39:49 26° SSW 17:42:40 10° SSE visible
05 Dec -2.0 16:48:20 10° W 16:51:24 33° SSW 16:54:27 10° SE visible
05 Dec -0.6 18:26:19 10° WSW 18:27:24 11° SW 18:28:28 10° SSW visible
06 Dec -0.8 17:36:52 10° WSW 17:38:58 16° SW 17:41:04 10° S visible
07 Dec -1.0 16:47:47 10° W 16:50:23 21° SSW 16:53:00 10° SSE visible
09 Dec -0.3 16:47:24 10° WSW 16:48:46 12° SW 16:50:09 10° SSW visible
